TimeEET,TemperatureF,Dew PointF,Humidity,Sea Level PressureIn,VisibilityMPH,Wind Direction,Wind SpeedMPH,Gust SpeedMPH,PrecipitationIn,Events,Conditions,WindDirDegrees,DateUTC
12:20 AM,57.2,48.2,72,30.21,-9999.0,ENE,6.9,-,N/A,,Clear,60,2012-11-15 22:20:00
12:50 AM,55.4,48.2,77,30.21,-9999.0,ENE,6.9,-,N/A,,Clear,70,2012-11-15 22:50:00
1:20 AM,57.2,48.2,72,30.21,-9999.0,ENE,5.8,-,N/A,,Clear,70,2012-11-15 23:20:00
1:50 AM,57.2,48.2,72,30.21,-9999.0,ENE,6.9,-,N/A,,Clear,60,2012-11-15 23:50:00
2:00 AM,56,47,64,30.23,6,ENE,6.9,,,,,60,2012-11-16 00:00:00
2:20 AM,55.4,48.2,77,30.21,-9999.0,NE,6.9,-,N/A,,Clear,50,2012-11-16 00:20:00
2:50 AM,55.4,48.2,77,30.21,-9999.0,NE,6.9,-,N/A,,Clear,40,2012-11-16 00:50:00
3:20 AM,55.4,48.2,77,30.21,-9999.0,NE,4.6,-,N/A,,Clear,40,2012-11-16 01:20:00
3:50 AM,53.6,46.4,77,30.21,-9999.0,East,4.6,-,N/A,,Clear,80,2012-11-16 01:50:00
4:20 AM,55.4,48.2,77,30.21,-9999.0,NE,6.9,-,N/A,,Clear,50,2012-11-16 02:20:00
4:50 AM,55.4,48.2,77,30.21,-9999.0,NNE,6.9,-,N/A,,Clear,30,2012-11-16 02:50:00
5:20 AM,55.4,48.2,77,30.21,-9999.0,NNE,8.1,-,N/A,,Clear,30,2012-11-16 03:20:00
5:50 AM,55.4,48.2,77,30.21,-9999.0,NE,8.1,-,N/A,,Clear,50,2012-11-16 03:50:00
6:20 AM,55.4,48.2,77,30.21,-9999.0,NE,5.8,-,N/A,,Clear,50,2012-11-16 04:20:00
6:50 AM,55.4,48.2,77,30.21,6.2,NE,9.2,-,N/A,,Partly Cloudy,40,2012-11-16 04:50:00
7:20 AM,57.2,48.2,72,30.21,6.2,NE,6.9,-,N/A,,Partly Cloudy,40,2012-11-16 05:20:00
7:50 AM,57.2,48.2,72,30.24,6.2,NE,5.8,-,N/A,,Partly Cloudy,40,2012-11-16 05:50:00
8:00 AM,56,48,67,30.24,6,NE,5.8,,,,Scattered Clouds,40,2012-11-16 06:00:00
8:20 AM,59.0,50.0,72,30.24,6.2,NE,8.1,-,N/A,,Partly Cloudy,50,2012-11-16 06:20:00
8:50 AM,59.0,48.2,67,30.24,6.2,ENE,11.5,-,N/A,,Partly Cloudy,60,2012-11-16 06:50:00
9:20 AM,60.8,48.2,63,30.24,6.2,NE,10.4,-,N/A,,Partly Cloudy,50,2012-11-16 07:20:00
9:50 AM,60.8,48.2,63,30.24,6.2,NE,10.4,-,N/A,,Scattered Clouds,50,2012-11-16 07:50:00
10:20 AM,60.8,48.2,63,30.24,6.2,ENE,15.0,-,N/A,,Scattered Clouds,70,2012-11-16 08:20:00
10:50 AM,60.8,48.2,63,30.24,6.2,NE,15.0,-,N/A,,Scattered Clouds,50,2012-11-16 08:50:00
11:20 AM,60.8,48.2,63,30.24,6.2,ENE,10.4,-,N/A,,Scattered Clouds,60,2012-11-16 09:20:00
11:50 AM,60.8,46.4,59,30.24,6.2,NE,15.0,-,N/A,,Mostly Cloudy,50,2012-11-16 09:50:00
12:20 PM,60.8,46.4,59,30.24,6.2,NE,12.7,-,N/A,,Mostly Cloudy,50,2012-11-16 10:20:00
1:20 PM,62.6,46.4,55,30.21,6.2,ENE,12.7,-,N/A,,Scattered Clouds,60,2012-11-16 11:20:00
1:50 PM,60.8,46.4,59,30.21,6.2,NE,13.8,-,N/A,,Scattered Clouds,50,2012-11-16 11:50:00
2:00 PM,62,46,46,30.24,6,NE,13.8,,,,Partly Cloudy,50,2012-11-16 12:00:00
2:20 PM,60.8,46.4,59,30.21,6.2,NE,13.8,-,N/A,,Scattered Clouds,50,2012-11-16 12:20:00
2:50 PM,60.8,46.4,59,30.21,6.2,NE,15.0,-,N/A,,Scattered Clouds,50,2012-11-16 12:50:00
3:20 PM,60.8,46.4,59,30.21,6.2,NE,13.8,25.3,N/A,,Scattered Clouds,40,2012-11-16 13:20:00
3:50 PM,60.8,46.4,59,30.21,6.2,NE,13.8,-,N/A,,Scattered Clouds,40,2012-11-16 13:50:00
4:20 PM,60.8,46.4,59,30.21,6.2,NE,11.5,-,N/A,,Scattered Clouds,50,2012-11-16 14:20:00
4:50 PM,59.0,48.2,67,30.24,6.2,NE,12.7,-,N/A,,Scattered Clouds,40,2012-11-16 14:50:00
5:20 PM,59.0,48.2,67,30.24,6.2,NE,13.8,-,N/A,,Scattered Clouds,50,2012-11-16 15:20:00
5:50 PM,59.0,48.2,67,30.24,6.2,NE,13.8,-,N/A,,Scattered Clouds,50,2012-11-16 15:50:00
6:20 PM,57.2,46.4,67,30.24,-9999.0,NE,12.7,-,N/A,,Clear,50,2012-11-16 16:20:00
6:50 PM,59.0,48.2,67,30.24,-9999.0,NE,13.8,-,N/A,,Clear,40,2012-11-16 16:50:00
7:20 PM,59.0,48.2,67,30.24,-9999.0,NE,13.8,-,N/A,,Clear,40,2012-11-16 17:20:00
7:50 PM,57.2,48.2,72,30.24,-9999.0,NE,12.7,-,N/A,,Clear,40,2012-11-16 17:50:00
8:00 PM,58,48,60,30.25,6,NE,12.7,,,,,40,2012-11-16 18:00:00
8:20 PM,57.2,48.2,72,30.24,-9999.0,NE,12.7,-,N/A,,Clear,40,2012-11-16 18:20:00
8:50 PM,59.0,48.2,67,30.24,-9999.0,ENE,9.2,-,N/A,,Clear,60,2012-11-16 18:50:00
9:20 PM,59.0,46.4,63,30.24,-9999.0,Variable,11.5,-,N/A,,Clear,0,2012-11-16 19:20:00
9:50 PM,57.2,46.4,67,30.24,-9999.0,NE,11.5,-,N/A,,Clear,50,2012-11-16 19:50:00
10:20 PM,57.2,48.2,72,30.24,-9999.0,NE,10.4,-,N/A,,Clear,50,2012-11-16 20:20:00
10:50 PM,57.2,48.2,72,30.21,-9999.0,NE,11.5,-,N/A,,Clear,50,2012-11-16 20:50:00
11:20 PM,57.2,48.2,72,30.24,-9999.0,NE,10.4,-,N/A,,Clear,50,2012-11-16 21:20:00
11:50 PM,57.2,48.2,72,30.21,-9999.0,NE,10.4,-,N/A,,Clear,40,2012-11-16 21:50:00